Location: Clatteringshaws Loch
(55.0508°N, 4.2860°W)
Time: 04:34:18
(UTC+01:00)

SR - Visible Passes

Search period start: 23 April 2018 00:00
Search period end: 03 May 2018 00:00
Orbit: 578 x 879 km, 66.7° (Epoch: 22 April)

Date Brightness Start Highest point End Pass type
(mag) Time Alt. Az. Time Alt. Az. Time Alt. Az.
23 Apr ? 21:16:58 10° NW 21:22:19 83° SW 21:28:03 10° SE visible
23 Apr ? 22:59:50 10° WNW 23:03:50 21° WSW 23:08:01 10° SSW visible
24 Apr ? 22:09:45 10° NW 22:14:37 34° WSW 22:19:45 10° S visible
25 Apr ? 21:19:59 10° NW 21:25:15 55° SW 21:30:51 10° SSE visible
25 Apr ? 23:04:00 10° W 23:06:23 13° WSW 23:08:49 10° SW visible
26 Apr ? 22:13:10 10° WNW 22:17:18 22° WSW 22:21:36 10° SSW visible
27 Apr ? 21:23:08 10° NW 21:28:04 36° WSW 21:33:16 10° S visible
28 Apr ? 22:17:12 10° WNW 22:19:52 14° WSW 22:22:34 10° SW visible
29 Apr ? 21:26:31 10° WNW 21:30:45 23° WSW 21:35:11 10° SSW visible
